www.pogodaiklimat.ru

Погода и климат >> Архив погоды >> Буркина-Фасо >> Вахигуя


ПОГОДА в Вахигуе

  • Прогноз погоды в Вахигуе
  • Монитор погоды в Вахигуе

АРХИВ ПОГОДЫ в Вахигуе

Время (UTC), дата Ветер
(напр.,м/с)
 
Видим.   Явления Облачность Т
(С)
Тd
(С)
f
(%)
Тe
(С)
Тes
(С)
Комфортность P
(гПа)
Po
(гПа)
Тmin
(С)
Tmax
(С)
R
(мм)
R24
(мм)
S
(см)
21 11.07 ЮВ 3 10 км 9/0
[Ci sp]
+30.8 +22.0 59 +39 +39 очень
душно
1010.4 973.3
12 12.07 ЮВ 1 10 км {гроза} 10/0
[Ac As]
+29.1 +20.0 58 +35 +43 очень
душно
1009.3 972.2
15 12.07 ЮВ 1 10 км гроза без осадков 9/1 1200 м
[Cb cap Ci sp]
+32.5 +18.1 42 +37 +48 очень
душно
1008.4 971.5
18 12.07 З 1 10 км {гроза} 9/0
[Ci sp]
+32.0 +16.7 40 +35 +36 очень
душно
1007.9 970.6 +33.4
00 13.07 ЮЗ 4 10 км 9/0
[Ci sp]
+28.8 +23.4 73 +39 +39 очень
душно
1009.8 972.6
15 13.07 ЮЗ 4 10 км 9/1 600 м
[Sc Ac As Ci sp]
+34.6 +19.7 42 +40 +45 очень
душно
1009.1 972.2
18 13.07 ЮЗ 4 15 км 9/1 600 м
[Sc Ci sp]
+33.0 +19.7 46 +39 +39 очень
душно
1008.5 971.4 +35.1
21 13.07 ЮЗ 3 10 км 9/0
[Ci sp]
+31.0 +20.0 52 +37 +37 очень
душно
1011.7 974.5
00 14.07 ЮЗ 4 10 км 9/0
[Ac trans Ci sp]
+29.5 +20.7 59 +37 +37 очень
душно
1012.3 975.3
06 14.07 ЮЗ 1 10 км 9/0
[Ac As Ci sp]
+26.4 +22.0 77 +34 +34 очень
душно
1011.7 974.6 +26.4
09 14.07 ЮЗ 2 10 км 9/0
[Ac As Ci sp]
+30.0 +21.4 60 +38 +45 очень
душно
1013.0 975.9
12 14.07 ЮЗ 2 10 км 9/6 600 м
[Cu Sc Ci sp]
+32.5 +21.0 51 +40 +47 очень
душно
1011.4 974.4
15 14.07 З 2 10 км 9/6 600 м
[Cu Sc Ci sp]
+34.0 +20.8 46 +41 +45 опасность
перегрева
1008.9 972.0
18 14.07 СЗ 2 10 км гроза без осадков 9/3 600 м
[Cb cap Ac As Ci sp]
+26.0 +21.1 74 +33 +33 очень
душно
1009.3 971.9 +34.6 19
21 14.07 СЗ 1 10 км 9/0
[Ac trans Ci sp]
+26.5 +23.8 85 +36 +36 очень
душно
1010.1 972.9
00 15.07 ЮЗ 3 10 км 9/0
[Ac trans Ci sp]
+27.0 +24.9 88 +39 +39 очень
душно
1010.1 973.0
03 15.07 ЮЗ 3 18 км 10/0
[Ac As]
+26.8 +23.7 83 +37 +37 очень
душно
1009.2 972.2
06 15.07 ЮЗ 3 10 км 9/0
[Ac As Ci sp]
+26.0 +24.0 89 +36 +36 очень
душно
1009.3 971.8 +25.6 19
09 15.07 ЮЗ 3 10 км 9/0
[Ac As Ci sp]
+28.7 +23.4 73 +39 +42 очень
душно
1009.2 971.9
12 15.07 ЮЗ 2 10 км 9/1 600 м
[Sc Ac As Ci sp]
+31.5 +23.0 61 +42 +53 опасность
перегрева
1009.7 972.6
15 15.07 ЮВ 7 10 км в посл. час гроза 9/1 1200 м
[Cb cap Ac As Ci sp]
+27.0 +18.4 59 +32 +33 очень
душно
1010.0 972.6
18 15.07 ЮВ 4 10 км {гроза} 9/0
[Ac As Ci sp]
+28.1 +17.2 52 +32 +32 душно 1008.3 971.0 +32.5
21 15.07 ЮЗ 3 10 км 9/0
[]
+26.4 +19.8 67 +32 +32 очень
душно
1008.8 971.5
00 16.07 ЮЗ 3 10 км 9/0
[Ac As Ci sp]
+25.1 +20.1 74 +31 +31 очень
душно
1008.3 971.1
03 16.07 ЮЗ 4 10 км 9/0
[Ac As Ci sp]
+24.7 +19.9 75 +30 +30 очень
душно
1007.7 970.2
06 16.07 штиль 0 10 км 9/0
[Ac As Ci sp]
+23.5 +21.3 87 +30 +30 очень
душно
1009.1 971.6 +23.5
09 16.07 ЮВ 2 10 км 9/0
[Ci sp]
+27.0 +19.5 64 +33 +42 очень
душно
1012.0 974.5
12 16.07 ЮЗ 3 10 км 9/1 600 м
[Sc Ci sp]
+30.5 +20.5 55 +37 +51 опасность
солнечного
удара
1010.9 973.5
15 16.07 ЮЗ 2 10 км 9/1 600 м
[Sc Ci sp]
+32.3 +20.9 51 +40 +49 очень
душно
1009.9 972.6
18 16.07 Ю 2 10 км 9/0
[Ci sp]
+31.3 +19.7 50 +37 +38 очень
душно
1009.9 972.6 +33.0
21 16.07 Ю 1 10 км 9/0
[Ci sp]
+29.2 +21.6 64 +37 +37 очень
душно
1011.3 974.0
00 17.07 штиль 0 10 км 9/0
[Ac trans Ci sp]
+27.4 +22.5 75 +36 +36 очень
душно
1011.5 974.3
03 17.07 Ю 1 10 км 9/0
[Ac As Ci sp]
+27.0 +21.9 74 +35 +35 очень
душно
1010.8 973.7
06 17.07 ЮВ 1 10 км 9/0
[Ac As Ci sp]
+26.0 +22.5 81 +34 +34 очень
душно
1012.0 974.7 +26.0
09 17.07 Ю 1 10 км 9/0
[Ac As Ci sp]
+29.7 +21.9 63 +38 +43 очень
душно
1013.5 976.2
12 17.07 Ю 3 15 км 9/4 600 м
[Cu Sc Ac As Ci sp]
+33.0 +20.7 48 +40 +46 очень
душно
1012.5 975.4
15 17.07 ЮВ 3 10 км 9/4 600 м
[Cu Sc Ac As Ci sp]
+34.3 +21.1 46 +42 +45 опасность
перегрева
1009.6 972.6
18 17.07 ЮВ 2 10 км 9/1 600 м
[Sc Ci sp]
+33.1 +20.7 48 +40 +40 очень
душно
1009.2 972.1 +35.1
21 17.07 Ю 3 10 км 9/0
[Ci sp]
+30.1 +21.2 59 +38 +38 очень
душно
1010.2 973.1
00 18.07 Ю 3 10 км 9/0
[Ci sp]
+28.7 +22.2 68 +37 +37 очень
душно
1011.0 974.0
03 18.07 Ю 3 10 км 9/0
[Cs]
+27.0 +22.7 77 +36 +36 очень
душно
1010.0 973.0
06 18.07 Ю 2 10 км 9/0
[Ac As Ci sp]
+25.8 +22.5 82 +34 +34 очень
душно
1010.1 973.0 +25.8
09 18.07 СВ 3 10 км слаб. дождь 10/1 600 м
[Cb cap Ac As]
+24.0 +20.7 82 +30 +32 очень
душно
1015.6 978.0
12 18.07 ЮЗ 4 10 км в посл. час дождь 10/0
[Ac As]
+23.5 +21.3 87 +30 +34 очень
душно
1010.4 972.9 30
18 18.07 штиль 0 10 км 9/0
[Ac As Ci sp]
+29.0 +23.9 74 +40 +40 очень
душно
1008.3 971.0 +29.7 30

 

Местоположение метеостанции Вахигуя (Буркина-Фасо): широта 13.57 долгота -2.42 высота над уровнем моря 336 м.

В архиве по умолчанию представлена погода в Вахигуе за последнюю неделю. Архивные данные за месяц целиком и за предыдущие месяцы, начиная с января 2011 года, Вы можете получить, выбрав интересующий диапазон дат из раскрывающегося списка и нажав кнопку "Ввод!".


*Определитесь, кто Вы:
робот инопланетянин человек

Внимание! Время в таблицах - всемирное. Для получения местного времени необходимо прибавить поправку, которая равна 0 ч.

Смотрите также архив погоды в соседних городах и на ближайших метеорологических станциях:

Погода в Уагадугу (Буркина-Фасо) (167 км)
Погода в Дедугу (Буркина-Фасо) (168 км)
Погода в Мопти (Мали) (210 км)
Погода в Боромо (Буркина-Фасо) (210 км)
Погода в Сане (Мали) (262 км)
Погода в Дори (Буркина-Фасо) (263 км)
Погода в По (Буркина-Фасо) (302 км)
Погода в Навронго (Гана) (330 км)
Погода в Бобо-Диуласо (Буркина-Фасо) (337 км)
Погода в Фада-Нгурме (Буркина-Фасо) (348 км)

Пояснения к столбцам:

Ветер - указаны скорость ветра в м/с - средняя за 10 мин, порывы в срок и между сроками (в фигурных скобках) и направление, откуда дует ветер: С - северный, СВ - северо-восточный, В - восточный, ЮВ - юго-восточный, Ю - южный, ЮЗ - юго-западный, З - западный, СЗ - северо-западный.
Видимость - горизонтальная дальность видимости в метрах или километрах. При видимости от 1 до 10 км при отсутствии осадков обычно наблюдается дымка, при ухудшении видимости до 1 км и менее - туман. В сухую погоду видимость может ухудшаться дымом, пылью или мглою.
Явления - указаны атмосферные явления, наблюдавшиеся в срок или в последний час перед сроком; фигурными скобками обозначены явления, наблюдавшиеся между сроками (за 1-3 часа до срока); квадратными скобками обозначены град или гололедные отложения с указанием их диаметра в мм.
Облачность - указаны через наклонную черту общая и нижняя облачность в баллах и высота нижней границы облаков в метрах; квадратными скобками обозначены формы облаков: Ci - перистые, Cs - перисто-слоистые, Cc - перисто-кучевые, Ac - высококучевые, As - высокослоистые, Sc - слоисто-кучевые, Ns - слоисто-дождевые, Cu - кучевые, Cb - кучево-дождевые. Подробнее классификацию облаков см. в Атласе облаков (PDF).
T - Температура воздуха - температура, измеренная на высоте 2 м над землей.
Td - Температура точки росы - температура, при понижении до которой содержащийся в воздухе водяной пар достигнет насыщения.
f - Относительная влажность воздуха - влажноcть воздуха, измеренная на высоте 2 м над землей.
Te - Эффективная температура - температура, которую ощущает одетый по сезону человек в тени. Характеристика душности погоды. При расчете учитывается влияние влажности воздуха и скорости ветра на теплоощущения человека.
Tes - Эффективная температура на солнце - температура, которую ощущает человек, с поправкой на солнечный нагрев. Характеристика знойности погоды. Зависит от высоты солнца над горизонтом, облачности и скорости ветра. Ночью, в пасмурную погоду, а также при ветре 12 м/с и более поправка равна нулю.
P - Атмосферное давление - приведенное к уровню моря атмосферное давление.
Po - Атмосферное давление - измеренное на уровне метеостанции атмосферное давление.
Tmin - Минимальная температура - минимум температуры воздуха на высоте 2 м над землей.
Tmax - Максимальная температура - максимум температуры воздуха на высоте 2 м над землей.
R - Количество осадков - Количество выпавших осадков за период времени, мм. При наведении курсора мыши на число - период времени, за который выпало указанное количество осадков.
R24 - Количество осадков - Количество выпавших осадков за 24 часа, мм.
S - Снежный покров - Высота снежного покрова, см. При наведении курсора мыши на число - состояние снежного покрова и степень покрытия местности в баллах.